EN

Hourly Weather La Florida

Today, 25 July, Sunday

Time Temperature Precipitation Wind Pressure Humidity
00:00 +13°C° 0.1 mm 1 mps 587 mmHg 89%
01:00 +13°C° 0.1 mm 1 mps 587 mmHg 88%
02:00 +13°C° 0 mm 1 mps 586 mmHg 89%
03:00 +12°C° 0 mm 1 mps 586 mmHg 89%
04:00 +12°C° 0 mm 1 mps 586 mmHg 89%
05:00 +12°C° 0 mm 1 mps 586 mmHg 87%
06:00 +13°C° 0 mm 1 mps 586 mmHg 85%
07:00 +13°C° 0 mm 1 mps 586 mmHg 82%
08:00 +15°C° 0 mm 1 mps 587 mmHg 77%
09:00 +18°C° 0 mm 1 mps 588 mmHg 71%
10:00 +19°C° 0 mm 1 mps 589 mmHg 65%
11:00 +20°C° 0.2 mm 1 mps 588 mmHg 63%
12:00 +21°C° 0.2 mm 1 mps 588 mmHg 61%
13:00 +20°C° 0.2 mm 2 mps 588 mmHg 59%
14:00 +20°C° 0.7 mm 2 mps 587 mmHg 65%
15:00 +19°C° 0.7 mm 2 mps 587 mmHg 72%
16:00 +18°C° 0.7 mm 2 mps 586 mmHg 79%
17:00 +16°C° 0.6 mm 1 mps 586 mmHg 84%
18:00 +15°C° 0.6 mm 1 mps 586 mmHg 89%
19:00 +14°C° 0.6 mm 1 mps 586 mmHg 94%
20:00 +14°C° 0.1 mm 1 mps 586 mmHg 93%
21:00 +13°C° 0.1 mm 1 mps 587 mmHg 91%
22:00 +13°C° 0.1 mm 1 mps 587 mmHg 90%
23:00 +13°C° 0.1 mm 1 mps 587 mmHg 90%

Tomorrow, 26 July, Monday

Time Temperature Precipitation Wind Pressure Humidity
00:00 +12°C° 0.1 mm 1 mps 586 mmHg 89%
01:00 +12°C° 0.1 mm 1 mps 586 mmHg 89%
02:00 +12°C° 0 mm 2 mps 586 mmHg 88%
03:00 +12°C° 0 mm 2 mps 585 mmHg 88%
04:00 +10°C° 0 mm 2 mps 585 mmHg 88%
05:00 +12°C° 0 mm 2 mps 585 mmHg 86%
06:00 +12°C° 0 mm 2 mps 586 mmHg 84%
07:00 +13°C° 0 mm 2 mps 586 mmHg 82%
08:00 +15°C° 0 mm 1 mps 587 mmHg 75%
09:00 +18°C° 0 mm 1 mps 588 mmHg 68%
10:00 +20°C° 0 mm 1 mps 588 mmHg 61%
11:00 +20°C° 0.1 mm 1 mps 588 mmHg 60%
12:00 +21°C° 0.1 mm 1 mps 588 mmHg 60%
13:00 +20°C° 0.1 mm 2 mps 588 mmHg 60%
14:00 +21°C° 0.4 mm 1 mps 587 mmHg 63%
15:00 +20°C° 0.4 mm 1 mps 587 mmHg 67%
16:00 +20°C° 0.4 mm 1 mps 586 mmHg 70%
17:00 +18°C° 0.6 mm 1 mps 586 mmHg 77%
18:00 +16°C° 0.6 mm 1 mps 586 mmHg 84%
19:00 +14°C° 0.6 mm 1 mps 586 mmHg 91%
20:00 +13°C° 0.1 mm 1 mps 586 mmHg 91%
21:00 +13°C° 0.1 mm 1 mps 587 mmHg 91%
22:00 +13°C° 0.1 mm 2 mps 587 mmHg 90%
23:00 +12°C° 0 mm 2 mps 587 mmHg 90%

Day after tomorrow, 27 July, Tuesday

Time Temperature Precipitation Wind Pressure Humidity
00:00 +12°C° 0 mm 2 mps 586 mmHg 90%
01:00 +12°C° 0 mm 2 mps 586 mmHg 89%
02:00 +12°C° 0 mm 2 mps 586 mmHg 89%
03:00 +10°C° 0 mm 2 mps 585 mmHg 89%
04:00 +10°C° 0 mm 2 mps 585 mmHg 88%
05:00 +12°C° 0 mm 2 mps 586 mmHg 87%
06:00 +12°C° 0 mm 2 mps 586 mmHg 86%
07:00 +12°C° 0 mm 2 mps 586 mmHg 85%
08:00 +15°C° 0 mm 2 mps 587 mmHg 76%
09:00 +18°C° 0 mm 1 mps 588 mmHg 67%
10:00 +21°C° 0 mm 1 mps 589 mmHg 58%
11:00 +21°C° 0.4 mm 1 mps 589 mmHg 61%
12:00 +20°C° 0.4 mm 2 mps 588 mmHg 63%
13:00 +20°C° 0.4 mm 2 mps 588 mmHg 65%
14:00 +20°C° 1.2 mm 2 mps 587 mmHg 69%
15:00 +19°C° 1.2 mm 2 mps 587 mmHg 73%
16:00 +19°C° 1.2 mm 2 mps 586 mmHg 77%
17:00 +18°C° 1.3 mm 1 mps 586 mmHg 82%
18:00 +16°C° 1.3 mm 1 mps 586 mmHg 88%
19:00 +14°C° 1.3 mm 1 mps 586 mmHg 94%
20:00 +14°C° 0.5 mm 1 mps 586 mmHg 93%
21:00 +13°C° 0.5 mm 1 mps 587 mmHg 92%
22:00 +13°C° 0.5 mm 1 mps 587 mmHg 92%
23:00 +13°C° 0.1 mm 1 mps 586 mmHg 91%

28 July, Wednesday

Time Temperature Precipitation Wind Pressure Humidity
00:00 +13°C° 0.1 mm 1 mps 586 mmHg 91%
01:00 +12°C° 0.1 mm 1 mps 586 mmHg 91%
02:00 +12°C° 0 mm 1 mps 586 mmHg 91%
03:00 +12°C° 0 mm 1 mps 585 mmHg 90%
04:00 +12°C° 0 mm 1 mps 585 mmHg 90%
05:00 +12°C° 0 mm 2 mps 586 mmHg 89%
06:00 +13°C° 0 mm 2 mps 586 mmHg 88%
07:00 +13°C° 0 mm 2 mps 586 mmHg 87%
08:00 +15°C° 0.1 mm 2 mps 587 mmHg 82%
09:00 +16°C° 0.1 mm 1 mps 588 mmHg 77%
10:00 +19°C° 0.1 mm 1 mps 588 mmHg 71%
11:00 +20°C° 0.3 mm 1 mps 588 mmHg 68%
12:00 +21°C° 0.3 mm 1 mps 588 mmHg 65%
13:00 +22°C° 0.3 mm 1 mps 588 mmHg 63%
14:00 +21°C° 1.1 mm 1 mps 587 mmHg 66%
15:00 +19°C° 1.1 mm 2 mps 587 mmHg 70%
16:00 +19°C° 1.1 mm 2 mps 586 mmHg 74%
17:00 +18°C° 0.9 mm 1 mps 586 mmHg 79%
18:00 +16°C° 0.9 mm 1 mps 586 mmHg 85%
19:00 +15°C° 0.9 mm 1 mps 586 mmHg 90%
20:00 +14°C° 0.3 mm 1 mps 586 mmHg 90%
21:00 +14°C° 0.3 mm 2 mps 587 mmHg 90%
22:00 +14°C° 0.3 mm 2 mps 587 mmHg 90%
23:00 +13°C° 0 mm 2 mps 586 mmHg 90%

29 July, Thursday

Time Temperature Precipitation Wind Pressure Humidity
00:00 +13°C° 0 mm 2 mps 586 mmHg 90%
01:00 +13°C° 0 mm 2 mps 586 mmHg 90%
02:00 +12°C° 0 mm 2 mps 585 mmHg 90%
03:00 +11°C° 0 mm 3 mps 585 mmHg 89%
04:00 +11°C° 0 mm 3 mps 585 mmHg 89%
05:00 +11°C° 0 mm 3 mps 585 mmHg 88%
06:00 +11°C° 0 mm 3 mps 586 mmHg 87%
07:00 +12°C° 0 mm 3 mps 586 mmHg 85%
08:00 +15°C° 0 mm 2 mps 587 mmHg 76%
09:00 +18°C° 0 mm 2 mps 588 mmHg 66%
10:00 +20°C° 0 mm 2 mps 589 mmHg 56%
11:00 +21°C° 0.1 mm 2 mps 588 mmHg 56%
12:00 +21°C° 0.1 mm 2 mps 588 mmHg 56%
13:00 +23°C° 0.1 mm 2 mps 588 mmHg 55%
14:00 +21°C° 0.3 mm 2 mps 587 mmHg 58%
15:00 +21°C° 0.3 mm 2 mps 587 mmHg 61%
16:00 +20°C° 0.3 mm 2 mps 586 mmHg 65%
17:00 +18°C° 0.4 mm 2 mps 586 mmHg 72%
18:00 +16°C° 0.4 mm 2 mps 586 mmHg 79%
19:00 +14°C° 0.4 mm 2 mps 586 mmHg 87%
20:00 +13°C° 0.1 mm 2 mps 586 mmHg 87%
21:00 +13°C° 0.1 mm 2 mps 586 mmHg 87%
22:00 +12°C° 0.1 mm 2 mps 587 mmHg 87%
23:00 +12°C° 0 mm 2 mps 586 mmHg 86%

30 July, Friday

Time Temperature Precipitation Wind Pressure Humidity
00:00 +12°C° 0 mm 2 mps 586 mmHg 86%
01:00 +12°C° 0 mm 2 mps 586 mmHg 86%
02:00 +12°C° 0 mm 2 mps 586 mmHg 85%
03:00 +10°C° 0 mm 3 mps 585 mmHg 85%
04:00 +10°C° 0 mm 3 mps 585 mmHg 85%
05:00 +12°C° 0 mm 2 mps 586 mmHg 84%
06:00 +12°C° 0 mm 2 mps 586 mmHg 84%
07:00 +13°C° 0 mm 2 mps 586 mmHg 83%
08:00 +15°C° 0 mm 2 mps 587 mmHg 74%
09:00 +18°C° 0 mm 2 mps 588 mmHg 65%
10:00 +21°C° 0 mm 1 mps 589 mmHg 56%
11:00 +22°C° 0.1 mm 1 mps 589 mmHg 57%
12:00 +21°C° 0.1 mm 2 mps 588 mmHg 57%
13:00 +21°C° 0.1 mm 2 mps 588 mmHg 57%
14:00 +21°C° 0.6 mm 2 mps 587 mmHg 61%
15:00 +20°C° 0.6 mm 2 mps 587 mmHg 65%
16:00 +20°C° 0.6 mm 2 mps 587 mmHg 69%
17:00 +18°C° 0.6 mm 2 mps 586 mmHg 76%
18:00 +16°C° 0.6 mm 2 mps 586 mmHg 82%
19:00 +15°C° 0.6 mm 2 mps 586 mmHg 89%
20:00 +14°C° 0.1 mm 2 mps 587 mmHg 88%
21:00 +14°C° 0.1 mm 2 mps 587 mmHg 88%
22:00 +14°C° 0.1 mm 2 mps 587 mmHg 88%
23:00 +14°C° 0.2 mm 2 mps 587 mmHg 88%
Show more